This demonstration page uses our WeatherBlox Daily Observations layout. Learn more.

Left ArrowRight Arrow

Hourly Observations for November 13, 2022

Temp ( °F °C ) Dew Point ( °F °C ) Humidity (%) Winds ( mph kmh ) Pressure ( in mb ) Visibility ( mi km ) Precip ( " mm )
12:55 am 00:55 Clear 18 -7.6 12 -11.3 75 75 Calm 30.41 1030 10 16 0.00 0.00
1:55 am 01:55 Clear 16 -8.8 11 -11.5 81 81 Calm 30.40 1030 10 16 0.00 0.00
2:55 am 02:55 Clear 16 -8.8 12 -11 84 84 Calm 30.40 1030 10 16 0.00 0.00
3:55 am 03:55 Clear 16 -8.8 12 -11.2 83 83 Calm 30.40 1030 10 16 0.00 0.00
4:55 am 04:55 Clear 17 -8.6 12 -11 83 83 Calm 30.42 1030 10 16 0.00 0.00
5:55 am 05:55 Clear 15 -9.2 11 -11.6 83 83 E 3 6 30.41 1030 10 16 0.00 0.00
6:55 am 06:55 Clear 16 -9 11 -11.4 83 83 Calm 30.42 1030 10 16 0.00 0.00
7:55 am 07:55 Sunny 16 -8.7 12 -11.1 83 83 E 5 7 30.42 1030 10 16 0.00 0.00
8:55 am 08:55 Sunny 20 -6.5 16 -8.9 83 83 SE 7 11 30.41 1030 10 16 0.00 0.00
9:55 am 09:55 Sunny 26 -3.1 17 -8.2 68 68 undefined N/A 30.40 1030 10 16 0.00 0.00
10:55 am 10:55 Sunny 30 -0.9 17 -8.6 56 56 SE 13 20 30.38 1029 10 16 0.00 0.00
11:55 am 11:55 Sunny 33 0.3 15 -9.2 49 49 SE 15 24 30.34 1027 10 16 0.00 0.00
12:55 pm 12:55 Sunny 35 1.8 15 -9.2 44 44 ESE 14 22 30.29 1026 10 16 0.00 0.00
1:55 pm 13:55 Sunny 37 2.9 16 -9.1 41 41 ESE 15 24 30.24 1024 10 16 0.00 0.00
2:55 pm 14:55 Sunny 38 3.4 14 -9.9 37 37 ESE 18 30 30.22 1023 10 16 0.00 0.00
3:55 pm 15:55 Sunny 36 2.2 15 -9.7 41 41 ESE 16 26 30.20 1023 10 16 0.00 0.00
4:55 pm 16:55 Sunny 35 1.6 15 -9.4 44 44 ESE 14 22 30.19 1023 10 16 0.00 0.00
5:55 pm 17:55 Clear 33 0.8 15 -9.2 47 47 ESE 13 20 30.20 1023 10 16 0.00 0.00
6:55 pm 18:55 Cloudy 34 1 16 -8.8 48 48 ESE 13 20 30.21 1023 10 16 0.00 0.00
7:55 pm 19:55 Cloudy 33 0.8 17 -8.5 50 50 ESE 12 19 30.22 1023 10 16 0.00 0.00
8:55 pm 20:55 Cloudy 33 0.8 17 -8.2 51 51 ESE 12 19 30.22 1024 10 16 0.00 0.00
9:55 pm 21:55 Cloudy 34 0.9 18 -7.9 52 52 ESE 9 15 30.23 1024 10 16 0.00 0.00
10:55 pm 22:55 Cloudy 33 0.8 18 -7.7 53 53 ESE 8 13 30.23 1024 10 16 0.00 0.00
11:55 pm 23:55 Cloudy 33 0.6 19 -7.4 55 55 ESE 9 15 30.21 1023 10 16 0.00 0.00

Powered by AerisWeather